Location: Newark
(44.2003°N, 3.2583°E)
Time: 14:07:52
(UTC+00:00)

Explorer 7 - Pass Details

Date: 23 October 2019
Orbit: 485 x 680 km, 50.3° (Epoch: 17 November)

Event Time Altitude Azimuth Distance (km) Brightness Sun altitude
Rises 13:34:44 0° 293° (WNW) 2,551 10.4 27.7°
Reaches altitude 10° 13:37:01 10° 302° (WNW) 1,677 9.4 27.5°
Maximum altitude 13:40:31 35° 10° (N) 814 7.5 27.1°
Drops below altitude 10° 13:44:07 10° 78° (ENE) 1,727 9.0 26.7°
Sets 13:46:30 0° 87° (E) 2,641 9.9 26.5°
